This is the latest recevied weather packets stored in our database for station/object KI5UTS-13. If no packets are shown the sender has not sent any weather packets the latest 10 day(s).
| Time | Temp. | Humidity | Pressure | Rain* | Wind** | Luminosity | Snow |
|---|---|---|---|---|---|---|---|
| 1788464924 | 35° C | 58% | 1015.3 hPa | 0 mm | - | 690 W/m² | - |
| 1788464620 | 34.44° C | 59% | 1015.3 hPa | 0 mm | - | 684 W/m² | - |
| 1788464316 | 34.44° C | 60% | 1015.5 hPa | 0 mm | - | 694 W/m² | - |
| 1788464012 | 34.44° C | 60% | 1015.5 hPa | 0 mm | - | 692 W/m² | - |
| 1788463707 | 34.44° C | 58% | 1015.5 hPa | 0 mm | - | 697 W/m² | - |
| 1788463403 | 34.44° C | 60% | 1015.6 hPa | 0 mm | - | 736 W/m² | - |
| 1788463098 | 35° C | 60% | 1016 hPa | 0 mm | - | 760 W/m² | - |
| 1788462794 | 35° C | 59% | 1016 hPa | 0 mm | - | 744 W/m² | - |
| 1788462488 | 35° C | 58% | 1015.9 hPa | 0 mm | - | 735 W/m² | - |
| 1788462182 | 35° C | 60% | 1016 hPa | 0 mm | - | 528 W/m² | - |
| 1788461877 | 34.44° C | 62% | 1015.5 hPa | 0 mm | - | 634 W/m² | - |
| 1788461576 | 33.89° C | 62% | 1016.1 hPa | 0 mm | - | 807 W/m² | - |
| 1788461273 | 33.89° C | 62% | 1016.2 hPa | 0 mm | - | 198 W/m² | - |
| 1788460969 | 34.44° C | 62% | 1016 hPa | 0 mm | - | 525 W/m² | - |
| 1788460664 | 33.89° C | 61% | 1016.2 hPa | 0 mm | - | 762 W/m² | - |
| 1788460358 | 33.89° C | 62% | 1016.2 hPa | 0 mm | - | 201 W/m² | - |
| 1788460057 | 33.33° C | 62% | 1016.3 hPa | 0 mm | - | 763 W/m² | - |
| 1788459753 | 33.89° C | 63% | 1016.3 hPa | 0 mm | - | 185 W/m² | - |
| 1788459452 | 33.89° C | 63% | 1016.3 hPa | 0 mm | - | 189 W/m² | - |
| 1788459146 | 34.44° C | 63% | 1016.6 hPa | 0 mm | - | 401 W/m² | - |
| 1788458843 | 35.56° C | 61% | 1016.5 hPa | 0 mm | - | 267 W/m² | - |
| 1788458541 | 35° C | 62% | 1016.7 hPa | 0 mm | - | 858 W/m² | - |
| 1788458241 | 34.44° C | 61% | 1016.7 hPa | 0 mm | - | 813 W/m² | - |
| 1788457935 | 34.44° C | 62% | 1016.6 hPa | 0 mm | - | 776 W/m² | - |
| 1788457634 | 34.44° C | 64% | 1016.8 hPa | 0 mm | - | 737 W/m² | - |
* Rain latest hour (hover to see other rain measurements)
** Current wind speed in m/s (hover to see current wind gust speed)